Weather History for Truckee-Tahoe, CA

Change the Weather History Date:

Thursday, June 14, 2012

  Actual Average Record
Temperature  
Mean Temperature 57 °F -  
Max Temperature 77 °F 71 °F 98 °F (2007)
Min Temperature 37 °F 36 °F 25 °F (1952)
Degree Days  
Heating Degree Days 8    
Growing Degree Days 7 (Base 50)    
Moisture  
Dew Point 42 °F    
Average Humidity 67    
Maximum Humidity 100    
Minimum Humidity 19    
Precipitation  
Precipitation 0.00 in - - ()
Sea Level Pressure  
Sea Level Pressure 30.03 in    
Wind  
Wind Speed 3 mph (SW)    
Max Wind Speed 17 mph    
Max Gust Speed 23 mph    
Visibility 8 miles    
Events Fog    
Averages and records for this station are not official NWS values.
T = Trace of Precipitation, MM = Missing Value Source: NWS Daily Summary

Daily Weather History Graph

Daily Weather History Graph

Search for Another Location

Airport:

Trip Planner

Search our weather history database for the weather conditions in past years. The results will help you decide how hot, cold, wet, or windy it might be!

Date:

Astronomy

Jun. 14, 2012 Rise Set
Actual Time 5:33 AM PDT 8:28 PM PDT
Civil Twilight 5:00 AM PDT 9:01 PM PDT
Nautical Twilight 4:20 AM PDT 9:41 PM PDT
Astronomical Twilight 3:33 AM PDT 10:29 PM PDT
Moon 2:17 AM PDT (6/14) 4:17 PM PDT (6/14)
Length of Visible Light 16h 00m
Length of Day
14h 55m
Waning Crescent, 20% of the Moon is Illuminated
Jun 14
Waning Crescent
Jun 19
New
Jun 26
First Quarter
Jul 3
Full
Jul 10
Last Quarter

Hourly Weather History & Observations

Time (PDT) Temp. Windchill Dew Point Humidity Pressure Visibility Wind Dir Wind Speed Gust Speed Precip Events Conditions
12:15 AM 50.0 °F - 46.4 °F 87% 30.05 in 10.0 mi SSE 4.6 mph - N/A   Clear
12:35 AM 48.2 °F - 46.4 °F 93% 30.04 in 10.0 mi Calm Calm - N/A   Clear
12:55 AM 50.0 °F - 46.4 °F 87% 30.04 in 10.0 mi Calm Calm - N/A   Clear
1:15 AM 48.2 °F - 44.6 °F 87% 30.04 in 10.0 mi Calm Calm - N/A   Clear
1:35 AM 48.2 °F - 46.4 °F 93% 30.04 in 10.0 mi Calm Calm - N/A   Clear
1:55 AM 48.2 °F - 46.4 °F 93% 30.04 in 10.0 mi Calm Calm - N/A   Clear
2:15 AM 48.2 °F - 46.4 °F 93% 30.03 in 10.0 mi Calm Calm - N/A   Clear
2:35 AM 46.4 °F - 46.4 °F 100% 30.03 in 3.0 mi Calm Calm - N/A   Clear
2:55 AM 46.4 °F - 44.6 °F 93% 30.04 in 3.0 mi Calm Calm - N/A   Clear
3:15 AM 44.6 °F - 42.8 °F 93% 30.03 in 0.2 mi Calm Calm - N/A Fog Fog
3:35 AM 41.0 °F - 41.0 °F 100% 30.03 in 0.5 mi Calm Calm - N/A Fog Fog
3:55 AM 44.6 °F - 44.6 °F 100% 30.03 in 0.5 mi Calm Calm - N/A Fog Fog
4:15 AM 42.8 °F - 42.8 °F 100% 30.03 in 10.0 mi Calm Calm - N/A   Clear
4:35 AM 41.0 °F 39.0 °F 41.0 °F 100% 30.03 in 0.2 mi SE 3.5 mph - N/A Fog Fog
4:55 AM 39.2 °F - 37.4 °F 93% 30.04 in 0.2 mi Calm Calm - N/A Fog Fog
5:15 AM 39.2 °F - 39.2 °F 100% 30.04 in 0.2 mi Calm Calm - N/A Fog Fog
5:35 AM 41.0 °F - 41.0 °F 100% 30.04 in 0.2 mi Calm Calm - N/A Fog Fog
5:55 AM 37.4 °F - 37.4 °F 100% 30.05 in 0.2 mi Calm Calm - N/A Fog Fog
6:15 AM 37.4 °F - 37.4 °F 100% 30.05 in 0.2 mi Calm Calm - N/A Fog Fog
6:35 AM 41.0 °F - 41.0 °F 100% 30.06 in 0.5 mi Calm Calm - N/A Fog Fog
6:45 AM 42.8 °F - 42.8 °F 100% 30.06 in 10.0 mi Calm Calm - N/A   Clear
7:50 AM 50.0 °F - 42.8 °F 76% 30.07 in 10.0 mi Calm Calm - N/A   Clear
8:45 AM 59.0 °F - 41.0 °F 51% 30.06 in 10.0 mi Calm Calm - N/A   Clear
9:45 AM 64.4 °F - 32.0 °F 30% 30.05 in 10.0 mi Calm Calm - N/A   Clear
11:55 AM 75.2 °F - 30.2 °F 19% 30.01 in 10.0 mi SSE 6.9 mph - N/A   Clear
12:45 PM 77.0 °F - 32.0 °F 19% 30.01 in 10.0 mi SE 11.5 mph 16.1 mph N/A   Clear
1:45 PM 77.0 °F - 32.0 °F 19% 29.99 in 10.0 mi ESE 6.9 mph - N/A   Partly Cloudy
2:55 PM 77.0 °F - 42.8 °F 29% 29.98 in 10.0 mi West 17.3 mph 23.0 mph N/A   Scattered Clouds
3:55 PM 75.2 °F - 46.4 °F 36% 29.99 in 10.0 mi West 15.0 mph 18.4 mph N/A   Scattered Clouds
4:45 PM 75.2 °F - 44.6 °F 34% 29.99 in 10.0 mi West 2.3 mph 20.7 mph N/A   Scattered Clouds
5:45 PM 73.4 °F - 44.6 °F 36% 29.99 in 10.0 mi West 13.8 mph - N/A   Scattered Clouds
5:55 PM 73.4 °F - 42.8 °F 33% 29.99 in 10.0 mi West 15.0 mph 19.6 mph N/A   Clear
6:15 PM 73.4 °F - 41.0 °F 31% 30.00 in 10.0 mi West 13.8 mph 17.3 mph N/A   Clear
6:35 PM 71.6 °F - 39.2 °F 31% 30.00 in 10.0 mi West 11.5 mph 18.4 mph N/A   Clear
6:55 PM 71.6 °F - 42.8 °F 35% 30.00 in 10.0 mi West 13.8 mph 17.3 mph N/A   Clear
7:15 PM 69.8 °F - 42.8 °F 38% 30.00 in 10.0 mi West 12.7 mph 17.3 mph N/A   Clear
7:35 PM 68.0 °F - 42.8 °F 40% 30.00 in 10.0 mi West 11.5 mph - N/A   Clear
7:55 PM 68.0 °F - 42.8 °F 40% 30.01 in 10.0 mi WSW 6.9 mph - N/A   Clear
8:15 PM 64.4 °F - 42.8 °F 45% 30.01 in 10.0 mi WSW 8.1 mph - N/A   Clear
8:35 PM 62.6 °F - 42.8 °F 48% 30.02 in 10.0 mi West 5.8 mph - N/A   Clear
8:55 PM 60.8 °F - 42.8 °F 52% 30.02 in 10.0 mi WSW 9.2 mph - N/A   Clear
9:15 PM 55.4 °F - 42.8 °F 63% 30.03 in 10.0 mi SSE 3.5 mph - N/A   Clear
9:35 PM 57.2 °F - 44.6 °F 63% 30.03 in 10.0 mi ESE 3.5 mph - N/A   Clear
9:55 PM 57.2 °F - 44.6 °F 63% 30.04 in 10.0 mi South 6.9 mph - N/A   Clear
10:15 PM 53.6 °F - 42.8 °F 67% 30.04 in 10.0 mi SE 5.8 mph - N/A   Clear
10:35 PM 51.8 °F - 41.0 °F 67% 30.03 in 10.0 mi SSE 5.8 mph - N/A   Clear
10:55 PM 51.8 °F - 42.8 °F 71% 30.03 in 10.0 mi SE 4.6 mph - N/A   Clear
11:15 PM 53.6 °F - 42.8 °F 67% 30.03 in 10.0 mi Calm Calm - N/A   Clear
11:35 PM 51.8 °F - 41.0 °F 67% 30.03 in 10.0 mi Calm Calm - N/A   Clear
11:55 PM 46.4 °F - 41.0 °F 81% 30.03 in 10.0 mi Calm Calm - N/A   Clear